Вернуться в каталог

COSMOS 839 DEB

АктивенUNKNOWN
NORAD 13515·DEBRIS·🇷🇺 Russia

Запущен Jul 8, 1976 с Plesetsk Cosmodrome

Loading…

Ближайшие Пролёты (ближайшие 24 часа)

TLE

СвежийSource: Space-Track

Эпоха: Sep 13, 2026, 22:19 UTC

1 13515U 76067BC  26256.92994822  .00000298  00000-0  12267-2 0  9996
2 13515  65.8989 204.0363 0646350  85.7121 339.4572 12.42475649 91263

Отслеживайте COSMOS 839 DEB в реальном времени с AllMySat

Download on the App Store